Location: Windsor
(43.2292°N, 89.3015°W)
Time: 14:54:37
(UTC+00:00)

X-37B - Visible Passes

Search period start: 24 January 2022 00:00
Search period end: 03 February 2022 00:00
Orbit: 334 x 337 km, 45.0° (Epoch: 11 January)

Date Brightness Start Highest point End Pass type
(mag) Time Alt. Az. Time Alt. Az. Time Alt. Az.
26 Jan 2.6 00:35:09 10° S 00:36:23 16° SSE 00:36:23 16° SSE visible
27 Jan 2.2 00:54:39 10° SW 00:56:12 25° SSW 00:56:12 25° SSW visible
27 Jan 2.4 23:40:36 10° S 23:42:31 17° SSE 23:44:26 10° ESE visible
28 Jan 2.9 01:14:51 10° WSW 01:15:56 21° WSW 01:15:56 21° WSW visible
29 Jan 1.2 00:00:05 10° SW 00:02:45 37° SSE 00:04:24 18° E visible
29 Jan 3.9 01:35:20 10° W 01:35:38 12° W 01:35:38 12° W visible
30 Jan 0.2 00:20:17 10° WSW 00:23:07 79° SSE 00:24:02 38° E visible
31 Jan 0.3 00:40:46 10° W 00:43:35 65° N 00:43:39 65° N visible
01 Feb 1.7 01:01:18 10° W 01:03:15 36° WNW 01:03:15 36° WNW visible
01 Feb 0.4 23:46:11 10° W 23:49:00 65° N 23:51:37 12° ENE visible
02 Feb 3.0 01:21:49 10° WNW 01:22:51 20° WNW 01:22:51 20° WNW visible
